N7UV-WX Weather Reports


Display with metric or nautical units.
time (UTC)temp
F
wind
direction
speed
MPH
gust
MPH
rain 1hr
in
rain 24hr
in
rain mn
in
humidity
%
barometer
mb
20260505090534 68 0.0 0.0 0.00 0.00 0.00 40 1009.6
20260505085534 68 0.0 0.0 0.00 0.00 0.00 40 1009.5
20260505084523 68 0.0 2.0 0.00 0.00 0.00 41 1009.8
20260505083519 68 0.0 1.0 0.00 0.00 0.00 41 1009.9
20260505082554 68 158 1.0 4.0 0.00 0.00 0.00 40 1009.9
20260505081520 68 0.0 0.0 0.00 0.00 0.00 40 1009.9
20260505080614 68 0.0 4.0 0.00 0.00 0.00 40 1009.7
20260505075520 69 0.0 1.0 0.00 0.00 0.00 40 1010.0
20260505074519 69 158 1.0 5.0 0.00 0.00 0.00 39 1010.0
20260505073600 69 0.0 0.0 0.00 0.00 0.00 38 1009.9
20260505072519 69 158 1.0 5.0 0.00 0.00 0.00 37 1009.9
20260505071519 70 158 2.0 5.0 0.00 0.00 0.00 36 1010.0
20260505070519 70 158 4.0 14.0 0.00 0.00 0.00 38 1009.9
20260505065519 70 0.0 0.0 0.00 0.00 0.00 42 1010.0
20260505064548 70 0.0 0.0 0.00 0.00 0.00 43 1009.9
20260505063533 70 0.0 0.0 0.00 0.00 0.00 42 1009.6
20260505062519 70 0.0 0.0 0.00 0.00 0.00 42 1009.4
20260505061519 70 0.0 0.0 0.00 0.00 0.00 42 1009.5
20260505060533 71 0.0 0.0 0.00 0.00 0.00 42 1009.3
20260505055534 71 0.0 0.0 0.00 0.00 0.00 41 1009.1
20260505054548 71 0.0 0.0 0.00 0.00 0.00 42 1009.3
20260505053519 71 0.0 0.0 0.00 0.00 0.00 41 1009.5
20260505052519 71 0.0 0.0 0.00 0.00 0.00 41 1009.6
20260505051533 71 0.0 0.0 0.00 0.00 0.00 41 1009.7
20260505050519 71 0.0 0.0 0.00 0.00 0.00 40 1010.1
20260505041518 72 0.0 0.0 0.00 0.00 0.00 40 1009.7
20260505040533 72 0.0 0.0 0.00 0.00 0.00 40 1009.9
20260505035519 72 0.0 0.0 0.00 0.00 0.00 41 1009.9
20260505034519 72 0.0 0.0 0.00 0.00 0.00 41 1009.7
20260505033535 72 0.0 0.0 0.00 0.00 0.00 42 1009.3
20260505032533 72 0.0 1.0 0.00 0.00 0.00 41 1009.3
20260505031521 72 0.0 1.0 0.00 0.00 0.00 41 1009.1
20260505030519 72 0.0 0.0 0.00 0.00 0.00 41 1008.9
20260505025536 72 0.0 0.0 0.00 0.00 0.00 41 1008.8
20260505024533 72 0.0 0.0 0.00 0.00 0.00 41 1008.9
20260505023518 72 0.0 0.0 0.00 0.00 0.00 41 1009.0
20260505022538 72 0.0 0.0 0.00 0.00 0.00 41 1008.9
20260505021520 72 0.0 0.0 0.00 0.00 0.00 40 1008.8
20260505020521 73 0.0 0.0 0.00 0.00 0.00 40 1008.9
20260505015520 73 0.0 0.0 0.00 0.00 0.00 38 1008.7
20260505014520 73 315 1.0 8.0 0.00 0.00 0.00 37 1008.7
20260505013621 74 293 2.0 8.0 0.00 0.00 0.00 37 1008.6
20260505012520 74 0.0 0.0 0.00 0.00 0.00 36 1008.7
20260505011535 74 0.0 1.0 0.00 0.00 0.00 36 1008.6
20260505010535 74 0.0 1.0 0.00 0.00 0.00 37 1008.6
20260505005520 74 315 1.0 4.0 0.00 0.00 0.00 37 1008.6
20260505004534 74 0.0 0.0 0.00 0.00 0.00 38 1008.8
20260505003520 74 0.0 0.0 0.00 0.00 0.00 37 1008.9
20260505002520 74 0.0 0.0 0.00 0.00 0.00 37 1008.9
20260505001559 74 0.0 2.0 0.00 0.00 0.00 36 1008.9
20260505000520 74 0.0 0.0 0.00 0.00 0.00 37 1009.0
20260504235520 74 270 1.0 3.0 0.00 0.00 0.00 37 1009.1
20260504234520 74 293 1.0 3.0 0.00 0.00 0.00 37 1009.1
20260504233520 74 0.0 0.0 0.00 0.00 0.00 38 1009.1
20260504232534 74 0.0 0.0 0.00 0.00 0.00 38 1009.1
20260504231600 74 0.0 0.0 0.00 0.00 0.00 38 1009.0
20260504230519 75 0.0 0.0 0.00 0.00 0.00 37 1009.1
20260504225554 74 0.0 0.0 0.00 0.00 0.00 39 1009.2
20260504224540 74 0.0 0.0 0.00 0.00 0.00 38 1009.1
20260504223520 74 0.0 0.0 0.00 0.00 0.00 39 1009.2
20260504222520 74 0.0 0.0 0.00 0.00 0.00 39 1009.3
20260504221535 73 0.0 2.0 0.00 0.00 0.00 40 1009.5
20260504220600 73 0.0 0.0 0.00 0.00 0.00 39 1009.6
20260504215534 73 0.0 0.0 0.00 0.00 0.00 39 1009.8
20260504214520 73 0.0 0.0 0.00 0.00 0.00 40 1009.9
20260504213618 73 0.0 0.0 0.00 0.00 0.00 39 1010.1
20260504212638 72 0.0 0.0 0.00 0.00 0.00 39 1010.1
20260504211555 72 0.0 5.0 0.00 0.00 0.00 40 1010.3
20260504210520 72 0.0 1.0 0.00 0.00 0.00 39 1010.6
20260504205534 72 0.0 0.0 0.00 0.00 0.00 40 1010.5
20260504204549 73 0.0 1.0 0.00 0.00 0.00 39 1010.6
20260504203534 74 0.0 1.0 0.00 0.00 0.00 39 1010.8
20260504202558 73 315 2.0 6.0 0.00 0.00 0.00 40 1010.7
20260504201520 72 0.0 0.0 0.00 0.00 0.00 42 1010.7
20260504200554 71 0.0 0.0 0.00 0.00 0.00 44 1010.7
20260504195520 71 0.0 3.0 0.00 0.00 0.00 44 1010.5
20260504194534 71 0.0 0.0 0.00 0.00 0.00 44 1010.1
20260504193520 71 0.0 0.0 0.00 0.00 0.00 44 1010.6
20260504192519 71 0.0 0.0 0.00 0.00 0.00 45 1010.2
20260504191519 71 0.0 2.0 0.00 0.00 0.00 45 1010.9
20260504190519 71 0.0 0.0 0.00 0.00 0.00 46 1010.8
20260504185534 71 0.0 0.0 0.00 0.00 0.00 45 1010.5
20260504184554 71 315 1.0 6.0 0.00 0.00 0.00 45 1010.4
20260504183534 71 0.0 3.0 0.00 0.00 0.00 45 1010.7
20260504182519 70 0.0 1.0 0.00 0.00 0.00 46 1010.7
20260504181536 70 225 1.0 4.0 0.00 0.00 0.00 47 1011.0
20260504180519 70 0.0 3.0 0.00 0.00 0.00 47 1011.2
20260504175519 70 293 1.0 3.0 0.00 0.00 0.00 49 1011.3
20260504174519 69 0.0 4.0 0.00 0.00 0.00 50 1010.9
20260504173548 69 0.0 0.0 0.00 0.00 0.00 50 1009.9
20260504172519 69 0.0 0.0 0.00 0.00 0.00 51 1010.1
20260504171519 68 0.0 0.0 0.00 0.00 0.00 52 1010.4
20260504170534 68 0.0 1.0 0.00 0.00 0.00 51 1010.6
20260504150519 71 0.0 0.0 0.00 0.00 0.00 39 1010.5
20260504140539 71 0.0 0.0 0.00 0.00 0.00 37 1009.5
20260504130519 72 0.0 0.0 0.00 0.00 0.00 37 1009.6
20260504110536 73 0.0 0.0 0.00 0.00 0.00 35 1008.7
20260504100515 73 0.0 0.0 0.00 0.00 0.00 36 1008.8